[[{"header":{"parameterUnit":"m.s-1","parameterCategory":1,"la1":30.2991,"la2":30.254,"lo1":-89.0895,"lo2":-89.0444,"dy":0.0017,"dx":0.0017,"nx":28,"ny":28,"refTime":"2025-12-31T09:00:00:Z","depth":0,"parameterNumber":2,"parameterNumberName":"U-component_of_WINDS"},"data":[0,0,0,0,0,0,0,0,0,0,0,0,0,0,0,0,0,0,0,0,0,0,0,0,0,0,0,0,0,0,0,0,0,0,0,0,0,0,0,0,0,0,0,0,0,0,0,0,0,0,0,0,0,0,0,0,0,0,4.4507,4.451,0,4.4728,4.4731,4.4733,4.4678,4.4674,4.4669,4.4665,4.4895,4.4905,4.4915,0,0,0,0,0,0,0,0,0,0,0,0,0,4.4039,4.4048,4.4507,4.451,4.4513,4.4728,4.4731,4.4734,4.4679,4.4673,4.4668,4.4663,4.4892,4.4904,4.4916,0,0,0,0,0,0,0,0,0,0,0,0,0,4.425,4.4051,4.4507,4.4511,4.4514,4.4727,4.4731,4.4734,4.468,4.4673,4.4667,4.4661,4.4888,4.4903,4.4918,4.5142,0,0,4.4964,4.4971,0,0,0,0,0,0,0,0,4.4238,4.4267,4.4508,4.4511,4.4514,4.4669,4.465,4.4871,4.4681,4.4617,4.4665,4.4658,4.4825,4.4845,4.4901,4.5152,4.5162,4.4966,4.4975,4.4982,4.4986,0,0,0,0,0,0,0,4.4223,4.4257,4.4595,4.4511,4.4515,4.4502,4.4525,4.4692,4.4755,4.4622,4.4618,4.4645,4.4826,4.4887,4.4906,4.5166,4.4965,4.4979,4.4988,4.4994,4.5609,4.5616,0,0,0,0,0,0,4.4206,4.4245,4.4588,4.4601,4.4357,4.4516,4.4542,4.4626,4.4753,4.4766,4.465,4.4642,4.4864,4.4888,4.4914,4.5183,4.4981,4.4996,4.5004,4.5602,4.561,4.5618,0,0,0,0,0,0,4.4196,4.4237,4.4579,4.4422,4.4465,4.4531,4.4626,4.4634,4.4694,4.4774,4.4786,4.4701,4.486,4.4893,4.5085,4.519,4.5003,4.5016,4.5593,4.5604,4.5614,4.5723,0,0,0,0,0,0,4.4183,4.4234,4.4319,4.4425,4.4473,4.4745,4.4633,4.4643,4.472,4.4711,4.4824,4.4837,4.4857,4.5062,4.51,4.5207,4.5028,4.5584,4.5598,4.5611,4.571,4.5736,4.5758,0,0,0,0,0,4.4166,4.4342,4.4324,4.4365,4.4582,4.4752,4.4779,4.4798,4.4729,4.4815,4.4866,4.4834,4.5172,4.5082,4.5124,4.5238,4.5578,4.5594,4.561,4.5699,4.5731,4.5757,0,0,0,0,0,0,4.425,4.4356,4.4337,4.4552,4.4643,4.4742,4.4852,4.4831,4.4944,4.4931,4.495,4.4976,4.5172,4.5224,4.5122,4.546,4.5365,4.539,4.5419,4.5449,4.5473,4.5456,4.5041,0,0,0,0,0,4.4293,4.4421,4.4508,4.4689,4.4735,4.4786,4.4861,4.4866,4.4962,4.5,4.5066,4.516,4.5287,4.5371,4.5493,4.5717,4.574,4.5816,4.584,4.5859,4.5881,4.6001,4.6035,4.5671,4.5671,4.5671,0,0,4.4384,4.4458,4.4538,4.4708,4.4779,4.4911,4.4819,4.4964,4.5062,4.5023,4.5207,4.5258,4.5365,4.5573,4.5668,4.5623,4.5986,4.588,4.5894,4.5906,4.6021,4.6055,4.6086,4.5682,4.568,4.5679,0,0,4.4617,4.4687,4.4844,4.4916,4.5024,4.5056,4.5094,4.5196,4.5227,4.5412,4.5385,4.5502,4.5722,4.5798,4.5866,4.6125,4.6098,4.6164,4.629,4.6406,4.6435,4.6461,4.6551,4.6584,4.6186,4.6186,4.6186,0,4.4717,4.4915,4.4928,4.5075,4.515,4.5118,4.5277,4.5347,4.549,4.5543,4.5489,4.5762,4.5832,4.6057,4.6119,4.6176,4.6219,4.6152,4.643,4.6455,4.6479,4.6566,4.6601,4.6193,4.6192,4.6192,4.6191,0,4.5031,4.5169,4.5283,4.5419,4.5507,4.566,4.5696,4.5784,4.5781,4.5819,4.6006,4.6089,4.6225,4.6279,4.628,4.6504,4.6472,4.6424,4.6329,4.6521,4.6603,4.6636,4.6203,4.6201,4.6199,4.6197,0,0,4.5326,4.5464,4.5506,4.5566,4.5682,4.5788,4.5939,4.607,4.6144,4.6243,4.6369,4.6555,4.651,4.6587,4.6595,4.6698,4.6895,4.6638,4.664,4.6681,4.7145,4.718,4.7218,4.6878,4.6885,4.689,4.7136,0,4.5568,4.5831,4.5847,4.6086,4.6212,4.6182,4.6313,4.6398,4.6436,4.6549,4.6592,4.6722,4.6654,4.67,4.68,4.685,4.6989,4.6833,4.6996,4.7001,4.6969,4.7261,4.7299,4.7527,4.7168,4.7174,4.7178,0,4.5887,4.5992,4.6243,4.6338,4.6391,4.6509,4.6629,4.6738,4.6833,4.6853,4.6937,4.693,4.7084,4.6983,4.7195,4.7088,4.7155,4.719,4.7199,4.7215,4.7101,4.7284,4.7601,4.7634,4.7229,4.7224,4.7221,0,4.6074,4.628,4.6456,4.6508,4.6623,4.6706,4.6758,4.6846,4.6924,4.7029,4.7079,4.7203,4.727,4.7365,4.7391,4.7316,4.7602,4.7504,4.7623,4.7623,4.7685,4.7681,4.8016,4.773,4.773,4.7729,4.7728,0,4.6343,4.6498,4.6541,4.6649,4.6821,4.6836,4.7006,4.7053,4.7131,4.7248,4.723,4.734,4.7368,4.7484,4.7505,4.7676,4.7707,4.7728,4.7732,4.7729,4.7727,4.7774,4.7758,4.7738,4.7736,4.7734,4.7733,0,4.6582,4.6617,4.6807,4.6899,4.6925,4.7048,4.7127,4.7231,4.7265,4.7413,4.7449,4.7504,4.7638,4.7673,4.7836,4.7849,4.8051,4.804,4.8018,4.8018,4.8134,4.8122,4.8511,4.8562,4.8244,4.8247,4.8249,0,4.6751,4.6869,4.6973,4.7048,4.7103,4.7226,4.7304,4.7324,4.7406,4.7521,4.7611,4.7742,4.7849,4.8065,4.812,4.8243,4.8234,4.8362,4.8253,4.8246,4.8235,4.8227,4.8238,4.8383,4.8386,4.8389,4.8391,0,4.7048,4.7058,4.717,4.7288,4.7381,4.7476,4.7566,4.7629,4.7661,4.7754,4.789,4.7972,4.8135,4.8266,4.8389,4.8443,4.8423,4.8425,4.8459,4.8457,4.8439,4.8449,4.8073,4.8416,4.8414,4.8412,4.841,4.8409,4.7256,4.7358,4.7446,4.7571,4.764,4.7724,4.7825,4.7871,4.7984,4.8117,4.8122,4.827,4.8359,4.8522,4.8583,4.8698,4.866,4.871,4.8722,4.8734,4.8743,4.8421,4.8721,4.8721,4.872,4.872,4.8719,0,4.755,4.7604,4.7719,4.7844,4.7942,4.7912,4.8009,4.8093,4.8223,4.8307,4.8411,4.8567,4.8692,4.8756,4.8881,4.8961,4.8955,4.8993,4.8987,4.9,4.8771,4.8729,4.8996,4.8996,4.8996,4.8996,4.8996,4.8996,4.7715,4.7885,4.7905,4.8109,4.8162,4.8305,4.8363,4.844,4.8507,4.868,4.8784,4.8824,4.89,4.9029,4.9143,4.9159,4.9205,4.9248,4.9259,4.9044,4.9016,4.8989,4.8949,4.9258,4.9259,4.9477,4.9479,4.9481]},{"header":{"parameterUnit":"m.s-1","parameterCategory":1,"la1":30.2991,"la2":30.254,"lo1":-89.0895,"lo2":-89.0444,"dy":0.0017,"dx":0.0017,"nx":28,"ny":28,"refTime":"2025-12-31T09:00:00:Z","depth":0,"parameterNumber":3,"parameterNumberName":"V-component_of_WINDS"},"data":[0,0,0,0,0,0,0,0,0,0,0,0,0,0,0,0,0,0,0,0,0,0,0,0,0,0,0,0,0,0,0,0,0,0,0,0,0,0,0,0,0,0,0,0,0,0,0,0,0,0,0,0,0,0,0,0,0,0,1.0598,1.0597,0,1.0582,1.0581,1.0581,1.0522,1.052,1.0519,1.0518,1.0502,1.0503,1.0504,0,0,0,0,0,0,0,0,0,0,0,0,0,1.0577,1.0577,1.0598,1.0597,1.0597,1.0582,1.0581,1.0581,1.0522,1.052,1.0519,1.0517,1.0502,1.0503,1.0504,0,0,0,0,0,0,0,0,0,0,0,0,0,1.0576,1.0578,1.0598,1.0566,1.0563,1.0582,1.0581,1.0581,1.0522,1.052,1.0518,1.0516,1.0502,1.0503,1.0504,1.0553,0,0,1.0508,1.0509,0,0,0,0,0,0,0,0,1.0576,1.0577,1.0571,1.0568,1.0565,1.0552,1.0568,1.0572,1.0523,1.0538,1.0518,1.0515,1.052,1.052,1.0521,1.0552,1.0551,1.0508,1.0509,1.051,1.051,0,0,0,0,0,0,0,1.0576,1.0577,1.0591,1.0571,1.0567,1.0552,1.055,1.0569,1.0541,1.0536,1.0532,1.0531,1.0518,1.052,1.0521,1.0551,1.0508,1.0509,1.051,1.0511,1.0619,1.0621,0,0,0,0,0,0,1.0581,1.0577,1.0592,1.0591,1.0565,1.0554,1.0552,1.0558,1.054,1.0536,1.0533,1.0528,1.0519,1.0519,1.052,1.0575,1.051,1.0511,1.0511,1.0617,1.0619,1.0622,0,0,0,0,0,0,1.058,1.0582,1.0592,1.0583,1.0583,1.0557,1.0564,1.0559,1.0561,1.0537,1.0532,1.054,1.0518,1.0518,1.0545,1.0573,1.0511,1.0512,1.0614,1.0618,1.0621,1.0685,0,0,0,0,0,0,1.058,1.0583,1.0601,1.0584,1.0584,1.0618,1.0566,1.056,1.0563,1.0557,1.0543,1.0539,1.0516,1.0543,1.0546,1.0574,1.0513,1.0612,1.0616,1.062,1.068,1.069,1.0699,0,0,0,0,0,1.0579,1.0621,1.0602,1.0604,1.0606,1.062,1.0619,1.0592,1.0565,1.0583,1.0568,1.0539,1.057,1.0546,1.0549,1.0578,1.061,1.0615,1.0619,1.0676,1.0688,1.0698,0,0,0,0,0,0,1.0643,1.0618,1.0597,1.0634,1.0629,1.0609,1.0632,1.0606,1.0609,1.0604,1.057,1.0567,1.0599,1.0591,1.0565,1.0623,1.0585,1.059,1.0627,1.0638,1.0647,1.0648,1.0515,0,0,0,0,0,1.0661,1.0674,1.0651,1.0686,1.0684,1.0658,1.0663,1.0643,1.0636,1.0634,1.0621,1.0617,1.0625,1.0631,1.0638,1.0679,1.0674,1.07,1.0709,1.0716,1.0722,1.0741,1.0752,1.0637,1.0637,1.0637,0,0,1.0699,1.0687,1.0697,1.0698,1.0692,1.0706,1.0657,1.0674,1.0684,1.0637,1.0661,1.0651,1.0643,1.0677,1.0691,1.0672,1.0752,1.0722,1.0729,1.073,1.0748,1.0758,1.0768,1.0641,1.064,1.0639,0,0,1.0775,1.0767,1.0794,1.0789,1.078,1.0762,1.0769,1.0752,1.0744,1.0767,1.0731,1.0742,1.0758,1.0753,1.0753,1.0826,1.0798,1.0829,1.0876,1.0896,1.0905,1.0913,1.0938,1.0947,1.0834,1.0834,1.0834,0,1.0823,1.0842,1.0812,1.083,1.0831,1.0789,1.0815,1.0812,1.0806,1.0807,1.0785,1.0802,1.0794,1.0826,1.0843,1.0845,1.0851,1.083,1.0906,1.0914,1.0921,1.0944,1.0954,1.0838,1.0837,1.0837,1.0837,0,1.0901,1.0915,1.0938,1.0932,1.0936,1.0959,1.0932,1.0939,1.0918,1.0902,1.0926,1.0914,1.0917,1.0923,1.0903,1.0951,1.0939,1.0912,1.0873,1.0936,1.0957,1.0966,1.0843,1.0842,1.0841,1.084,0,0,1.1018,1.0993,1.1002,1.0999,1.0985,1.0995,1.1015,1.1017,1.1024,1.1021,1.1036,1.105,1.1024,1.1024,1.1002,1.102,1.1077,1.099,1.099,1.1006,1.1128,1.1148,1.1159,1.1058,1.106,1.1061,1.1128,0,1.1089,1.1123,1.1095,1.1133,1.1145,1.1104,1.1121,1.1115,1.11,1.1108,1.1092,1.1102,1.1068,1.1067,1.1082,1.1067,1.1101,1.1061,1.1073,1.1073,1.1075,1.117,1.1192,1.1256,1.1137,1.1138,1.1139,0,1.1178,1.1177,1.1217,1.1198,1.1202,1.1219,1.1217,1.1226,1.1217,1.1205,1.1204,1.1177,1.1196,1.1157,1.1181,1.1155,1.1158,1.1151,1.1152,1.1152,1.111,1.1172,1.1276,1.1286,1.1152,1.1151,1.115,0,1.1257,1.1267,1.1291,1.1289,1.1269,1.1281,1.1274,1.1263,1.1265,1.1264,1.1265,1.1267,1.1268,1.1269,1.1243,1.1218,1.127,1.123,1.1261,1.1262,1.1274,1.1273,1.1379,1.1277,1.1276,1.1276,1.1276,0,1.134,1.1365,1.1326,1.1342,1.1368,1.1336,1.1364,1.1352,1.1342,1.1353,1.1318,1.133,1.1295,1.1303,1.1283,1.1306,1.1306,1.1297,1.1291,1.13,1.1301,1.1301,1.1296,1.1279,1.1278,1.1278,1.1277,0,1.1434,1.1409,1.1432,1.1411,1.1406,1.1427,1.1408,1.1421,1.1404,1.1419,1.1421,1.1394,1.1401,1.1375,1.1379,1.1365,1.1398,1.1385,1.1401,1.1397,1.1429,1.1426,1.1538,1.155,1.1441,1.1442,1.1443,0,1.1488,1.1506,1.1486,1.1491,1.1485,1.1494,1.1495,1.1464,1.1468,1.1458,1.1472,1.1476,1.1477,1.1491,1.1472,1.1474,1.146,1.1499,1.146,1.1468,1.146,1.1459,1.146,1.1508,1.1509,1.151,1.1511,0,1.1586,1.1573,1.1577,1.1576,1.1579,1.1577,1.1573,1.1579,1.1545,1.1551,1.1557,1.1559,1.1561,1.1565,1.1563,1.1555,1.1527,1.1523,1.153,1.1539,1.1547,1.1542,1.1422,1.1521,1.152,1.1519,1.1519,1.1518,1.1661,1.1675,1.1663,1.1668,1.1661,1.1658,1.1668,1.1652,1.1657,1.1656,1.1637,1.1647,1.1636,1.163,1.1624,1.1632,1.1613,1.1624,1.1626,1.1629,1.1634,1.1546,1.1631,1.1631,1.1631,1.163,1.163,0,1.1757,1.1747,1.1752,1.1746,1.175,1.1723,1.1717,1.1722,1.1731,1.1723,1.1725,1.1732,1.1735,1.1716,1.1717,1.1726,1.1714,1.1728,1.1726,1.1725,1.1651,1.1645,1.1738,1.1738,1.1738,1.1738,1.1738,1.1738,1.1807,1.1829,1.1813,1.1831,1.182,1.1829,1.1828,1.1824,1.1817,1.1827,1.1829,1.1816,1.1804,1.1803,1.1805,1.1799,1.1801,1.1819,1.1809,1.1741,1.173,1.172,1.1714,1.182,1.182,1.1881,1.1882,1.1882]}]]